Total_Precipitation_Accumulation
1.25 1.21 1.15 1.20 1.08 1.01 1.07 1.13 1.15 1.16 1.05 0.91 0.88 0.91 0.99 0.93 0.93 1.07 1.37 1.80 2.34 2.78 2.97 2.90 2.67 2.55 2.61 2.59 2.69 2.89 3.10 3.24 3.08 2.91 2.62 2.43 2.57 2.69 2.38 2.30 2.32 2.35 2.54
1.28 1.33 1.27 1.21 1.13 1.04 1.07 1.24 1.20 1.21 1.18 1.11 0.97 0.98 1.01 0.96 0.94 0.98 1.12 1.48 1.83 2.23 2.72 3.07 2.88 2.63 2.43 2.38 2.39 2.56 2.84 2.92 2.68 2.60 2.54 2.47 2.69 2.83 2.51 2.34 2.24 2.14 2.37
1.13 1.20 1.22 1.16 1.14 1.15 1.16 1.20 1.24 1.29 1.21 1.13 1.10 1.06 1.05 1.01 0.93 0.96 0.93 1.07 1.18 1.52 1.98 2.43 2.75 2.76 2.63 2.53 2.49 2.59 2.81 2.74 2.49 2.53 2.63 2.57 2.55 2.64 2.61 2.45 2.24 2.13 2.28
1.20 1.19 1.22 1.21 1.25 1.29 1.27 1.30 1.36 1.35 1.29 1.28 1.25 1.22 1.10 1.07 1.01 0.99 0.93 0.92 0.98 0.99 1.24 1.55 1.94 2.34 2.58 2.70 2.87 3.05 2.90 2.63 2.39 2.38 2.50 2.35 2.26 2.36 2.47 2.44 2.19 2.01 1.94
1.27 1.40 1.43 1.43 1.40 1.41 1.41 1.35 1.37 1.29 1.29 1.31 1.24 1.27 1.22 1.18 1.12 0.98 1.00 0.97 0.96 0.90 0.97 0.97 1.13 1.39 1.78 2.26 2.88 3.16 2.76 2.51 2.36 2.19 2.16 2.10 2.11 2.21 2.25 2.10 1.95 1.80 1.75
1.50 1.69 1.78 1.68 1.64 1.63 1.62 1.55 1.61 1.50 1.38 1.42 1.31 1.28 1.25 1.16 1.19 1.14 1.10 1.04 1.06 1.01 0.94 0.84 0.82 0.77 1.02 1.53 2.26 2.72 2.65 2.51 2.32 2.21 2.09 2.03 2.12 2.23 2.18 2.04 1.93 1.91 1.89
1.82 1.96 1.89 1.97 1.99 1.85 1.86 1.91 1.95 1.91 1.73 1.60 1.65 1.54 1.29 1.10 1.17 1.12 1.07 1.10 1.13 1.21 1.20 1.05 0.90 0.82 0.81 1.02 1.52 2.11 2.47 2.48 2.47 2.34 2.24 2.19 2.12 2.13 2.13 2.08 2.03 2.00 2.00
2.05 2.09 2.17 2.25 2.28 2.28 2.21 2.11 2.22 2.37 2.11 1.88 1.98 2.26 1.89 1.55 1.19 0.96 1.03 1.05 1.12 1.34 1.38 1.18 0.97 0.89 0.88 1.00 0.99 1.32 1.75 2.17 2.40 2.43 2.35 2.26 2.20 2.22 2.26 2.13 2.00 1.98 2.01
2.27 2.31 2.37 2.42 2.43 2.28 2.27 2.38 2.51 2.85 2.67 2.30 2.09 2.36 2.20 1.90 1.62 1.18 1.04 1.05 1.11 1.27 1.38 1.39 1.27 1.20 1.10 1.12 1.10 0.94 1.13 1.58 2.03 2.39 2.48 2.45 2.29 2.48 2.71 2.47 2.10 1.92 1.82
2.23 2.35 2.36 2.34 2.30 2.24 2.31 2.37 2.42 2.84 3.06 2.77 2.42 2.01 1.79 1.76 1.86 1.60 1.18 1.09 1.14 1.13 1.24 1.33 1.29 1.35 1.34 1.35 1.33 1.06 0.99 1.23 1.60 2.14 2.55 2.88 2.68 2.49 2.54 2.62 2.41 2.06 1.80
2.08 2.12 2.12 2.22 2.24 2.27 2.34 2.50 2.64 2.91 2.94 2.93 2.75 2.52 2.28 1.96 1.61 1.70 1.66 1.36 1.27 1.14 1.22 1.34 1.39 1.48 1.52 1.55 1.69 1.41 1.10 1.01 1.22 1.71 2.30 2.86 3.02 2.78 2.55 2.51 2.46 2.27 1.97
2.06 1.98 1.92 2.01 2.15 2.29 2.34 2.44 2.60 2.86 2.97 3.06 2.98 2.69 2.58 2.41 2.13 2.01 1.75 1.61 1.57 1.31 1.26 1.30 1.33 1.46 1.62 1.72 1.69 1.80 1.46 1.06 0.97 1.26 1.64 2.17 2.82 3.06 2.91 2.81 2.72 2.62 2.40
1.77 1.83 1.88 1.97 2.10 2.19 2.26 2.38 2.52 2.59 2.71 2.96 2.97 2.80 2.58 2.38 2.37 2.25 2.14 1.82 1.62 1.39 1.35 1.35 1.30 1.35 1.38 1.66 1.82 1.91 1.56 1.20 0.93 0.94 1.12 1.40 1.92 2.52 2.83 2.85 2.85 2.99 2.99
1.66 1.62 1.66 1.74 1.96 2.15 2.22 2.32 2.33 2.32 2.38 2.57 2.58 2.66 2.62 2.36 2.32 2.22 2.22 2.32 2.03 1.77 1.57 1.36 1.24 1.31 1.34 1.53 1.85 1.94 1.49 1.30 1.05 0.91 0.94 1.17 1.36 1.56 1.91 2.43 2.76 2.98 3.20
1.44 1.40 1.44 1.48 1.60 1.82 2.06 2.21 2.18 2.10 2.07 2.23 2.30 2.40 2.54 2.57 2.48 2.37 2.34 2.43 2.42 2.16 1.91 1.63 1.37 1.25 1.33 1.46 1.85 1.76 1.53 1.38 1.26 1.06 0.96 1.04 1.10 1.22 1.32 1.61 1.91 2.11 2.33
1.26 1.22 1.23 1.32 1.47 1.60 1.78 2.00 2.09 2.03 2.03 2.11 2.21 2.33 2.48 2.61 2.65 2.43 2.39 2.39 2.28 2.25 2.09 1.70 1.41 1.31 1.38 1.37 1.72 1.71 1.64 1.63 1.40 1.23 1.14 1.11 1.15 1.14 1.14 1.24 1.33 1.37 1.35
1.10 1.10 1.24 1.30 1.37 1.47 1.67 1.93 2.11 2.12 2.04 2.05 2.03 2.10 2.28 2.38 2.61 2.58 2.49 2.39 2.27 2.16 2.06 1.84 1.59 1.40 1.46 1.52 1.62 1.70 1.66 1.52 1.33 1.29 1.16 1.12 1.12 1.14 1.11 1.14 1.26 1.19 1.09
0.84 0.96 1.10 1.13 1.17 1.22 1.43 1.72 1.92 1.98 1.96 1.86 1.81 1.91 2.12 2.29 2.51 2.64 2.60 2.45 2.37 2.25 2.17 2.13 1.93 1.67 1.55 1.61 1.75 1.82 1.73 1.63 1.54 1.53 1.40 1.26 1.19 1.16 1.15 1.12 1.15 1.21 1.17
0.85 0.97 1.05 1.10 1.14 1.19 1.23 1.36 1.55 1.70 1.69 1.63 1.63 1.67 1.70 1.88 2.16 2.36 2.38 2.41 2.47 2.45 2.45 2.31 2.10 1.96 1.80 1.68 1.81 1.85 1.80 1.80 1.66 1.68 1.64 1.53 1.47 1.40 1.30 1.19 1.14 1.15 1.19
0.83 0.91 0.96 1.04 1.12 1.16 1.18 1.20 1.24 1.31 1.35 1.43 1.49 1.50 1.53 1.58 1.78 1.96 2.06 2.25 2.51 2.56 2.62 2.54 2.28 2.11 1.99 1.85 1.92 2.02 2.07 2.01 1.87 1.70 1.70 1.61 1.62 1.56 1.42 1.23 1.13 1.10 1.13
0.76 0.83 0.88 0.88 0.94 1.04 1.14 1.18 1.07 1.05 1.15 1.26 1.28 1.22 1.24 1.36 1.51 1.63 1.66 2.01 2.38 2.59 2.60 2.56 2.40 2.28 2.02 1.92 1.79 1.79 1.95 2.17 2.15 2.08 1.97 1.70 1.61 1.49 1.43 1.41 1.29 1.17 1.15
0.76 0.79 0.77 0.78 0.85 0.87 1.06 1.06 0.91 0.91 0.98 1.09 1.19 1.16 1.05 1.05 1.12 1.25 1.32 1.46 1.72 1.98 2.30 2.51 2.44 2.23 1.97 1.88 1.86 1.85 1.86 1.98 2.14 2.05 2.08 2.05 1.96 1.88 1.76 1.63 1.64 1.52 1.39
0.70 0.71 0.70 0.69 0.72 0.84 0.89 0.76 0.78 0.81 0.89 0.98 1.06 1.14 1.05 0.93 1.04 1.12 1.24 1.31 1.28 1.32 1.62 2.02 2.17 2.09 2.15 2.06 2.02 1.91 1.86 1.91 1.95 1.95 2.14 2.13 2.08 2.07 1.99 1.98 2.06 1.89 1.70
0.70 0.70 0.73 0.71 0.70 0.78 0.79 0.66 0.73 0.75 0.78 0.86 1.00 1.11 1.15 1.08 1.10 1.22 1.22 1.24 1.16 1.11 1.32 1.34 1.53 1.87 2.08 2.18 2.12 2.17 2.30 2.23 2.06 1.94 1.99 2.00 1.86 1.87 1.89 1.91 2.05 1.98 1.83
0.68 0.71 0.76 0.77 0.70 0.69 0.76 0.68 0.71 0.74 0.76 0.81 0.85 0.95 1.04 1.01 1.20 1.31 1.27 1.40 1.39 1.25 1.39 1.46 1.51 1.59 1.77 1.98 2.05 2.06 2.09 2.14 2.09 1.99 1.84 1.72 1.62 1.61 1.67 1.69 1.72 1.81 1.79
0.47 0.58 0.59 0.61 0.65 0.65 0.86 0.79 0.79 0.75 0.79 0.89 0.92 0.91 1.08 1.11 1.26 1.24 1.15 1.36 1.40 1.32 1.26 1.30 1.28 1.28 1.24 1.41 1.68 1.77 1.95 2.02 1.96 1.87 1.64 1.54 1.48 1.51 1.50 1.35 1.25 1.28 1.29